Yaogan 43-03-01

operational
NORAD ID: 61617 Int'l Des: 2024-190 Owner: ZZB Country: CN Constellation: yaogan
LEOCIRCULAR

Yaogan 43-03-01について

説明を読み込み中...

リアルタイム位置

3D地球を読み込み中...

次回通過

高度履歴

Altitude vs Time

uPlot chart will show altitude changes over time

軌道要素

1 61617U 24190A 26071.16488131 .00008276 00000-0 34437-3 0 9992
2 61617 34.9909 87.9679 0005710 180.9557 179.1148 15.23019624 77065
Epoch: Mar 12, 2026 • Age: 37 hours

現在のステータス

高度 499.4 km
速度 7.62 km/s
衛星直下点 0.23°N, 73.52°E
打ち上げ日 Oct 23, 2024
運用期間 1.3 years
タイプ military

技術仕様

分類 Payload
質量 300.00 kg
乾燥質量 300.00 kg
総質量 300.00 kg
長さ 2.50 m
直径 2.50 m
スパン 5.00 m
形状 Box + 2 Pan
製造者 SAST
フェーズステータス In Orbit
所有者/国 ZZB/CN

大規模コンステレーション

Loading constellations...